| time (UTC) | temp F | wind direction | speed knots | gust knots | rain 1hr in | rain 24hr in | rain mn in | humidity % | barometer mb |
| 20260504204617 | 81 | 225 | 10.4 | 13.9 | 0.00 | 0.00 | 0.00 | 40 | 1001.5 |
| 20260504203617 | 80 | 225 | 8.7 | 15.6 | 0.00 | 0.00 | 0.00 | 41 | 1001.7 |
| 20260504202617 | 81 | 225 | 11.3 | 15.6 | 0.00 | 0.00 | 0.00 | 39 | 1001.8 |
| 20260504201617 | 80 | 225 | 6.1 | 10.4 | 0.00 | 0.00 | 0.00 | 41 | 1001.8 |
| 20260504200617 | 81 | 225 | 8.7 | 14.8 | 0.00 | 0.00 | 0.00 | 40 | 1001.8 |
| 20260504195638 | 81 | 203 | 7.8 | 13.0 | 0.00 | 0.00 | 0.00 | 41 | 1001.9 |
| 20260504194617 | 80 | 225 | 8.7 | 13.9 | 0.00 | 0.00 | 0.00 | 41 | 1002.0 |
| 20260504193617 | 80 | 203 | 5.2 | 10.4 | 0.00 | 0.00 | 0.00 | 42 | 1001.9 |
| 20260504192617 | 80 | 203 | 7.0 | 12.2 | 0.00 | 0.00 | 0.00 | 42 | 1001.9 |
| 20260504191617 | 79 | 248 | 5.2 | 7.0 | 0.00 | 0.00 | 0.00 | 43 | 1002.0 |
| 20260504190617 | 79 | 248 | 10.4 | 16.5 | 0.00 | 0.00 | 0.00 | 43 | 1002.0 |
| 20260504185617 | 79 | 203 | 3.5 | 7.8 | 0.00 | 0.00 | 0.00 | 44 | 1002.1 |
| 20260504184617 | 79 | 203 | 10.4 | 14.8 | 0.00 | 0.00 | 0.00 | 42 | 1002.2 |
| 20260504183657 | 79 | 203 | 7.8 | 14.8 | 0.00 | 0.00 | 0.00 | 45 | 1002.1 |
| 20260504182617 | 78 | 180 | 6.1 | 10.4 | 0.00 | 0.00 | 0.00 | 45 | 1002.2 |
| 20260504181617 | 78 | 158 | 7.8 | 13.9 | 0.00 | 0.00 | 0.00 | 45 | 1002.2 |
| 20260504180617 | 78 | 203 | 7.0 | 11.3 | 0.00 | 0.00 | 0.00 | 45 | 1002.4 |
| 20260504175617 | 78 | 180 | 7.0 | 15.6 | 0.00 | 0.00 | 0.00 | 45 | 1002.4 |
| 20260504174637 | 78 | 180 | 7.8 | 12.2 | 0.00 | 0.00 | 0.00 | 46 | 1002.4 |
| 20260504173637 | 77 | 203 | 7.8 | 12.2 | 0.00 | 0.00 | 0.00 | 46 | 1002.3 |
| 20260504172617 | 77 | 203 | 7.0 | 11.3 | 0.00 | 0.00 | 0.00 | 45 | 1002.5 |
| 20260504171616 | 77 | 225 | 8.7 | 13.9 | 0.00 | 0.00 | 0.00 | 46 | 1002.8 |
| 20260504170616 | 77 | 158 | 7.8 | 12.2 | 0.00 | 0.00 | 0.00 | 47 | 1002.9 |
| 20260504150616 | 71 | 203 | 7.8 | 12.2 | 0.00 | 0.00 | 0.00 | 54 | 1003.9 |
| 20260504140616 | 67 | 158 | 5.2 | 8.7 | 0.00 | 0.00 | 0.00 | 62 | 1004.5 |
| 20260504130616 | 61 | 158 | 4.3 | 5.2 | 0.00 | 0.00 | 0.00 | 69 | 1005.0 |
| 20260504110615 | 52 | 135 | 2.6 | 4.3 | 0.00 | 0.00 | 0.00 | 79 | 1005.5 |
| 20260504100517 | 54 | 158 | 2.6 | 5.2 | 0.00 | 0.00 | 0.00 | 74 | 1006.0 |
| 20260504081516 | 55 | 203 | 1.7 | 2.6 | 0.00 | 0.00 | 0.00 | 68 | 1006.9 |
| 20260504080516 | 55 | 203 | 0.9 | 2.6 | 0.00 | 0.00 | 0.00 | 68 | 1006.9 |
| 20260504050536 | 57 | 225 | 0.9 | 1.7 | 0.00 | 0.00 | 0.00 | 67 | 1008.3 |
| 20260504045516 | 58 | 203 | 0.9 | 1.7 | 0.00 | 0.00 | 0.00 | 66 | 1008.4 |
| 20260504044516 | 58 | 158 | 0.9 | 0.9 | 0.00 | 0.00 | 0.00 | 65 | 1008.5 |
| 20260504043516 | 59 | 180 | 0.9 | 1.7 | 0.00 | 0.00 | 0.00 | 64 | 1008.7 |
| 20260504042516 | 59 | 225 | 1.7 | 3.5 | 0.00 | 0.00 | 0.00 | 65 | 1008.7 |
| 20260504041516 | 59 | 225 | 1.7 | 2.6 | 0.00 | 0.00 | 0.00 | 64 | 1008.7 |
| 20260504040536 | 59 | 203 | 2.6 | 3.5 | 0.00 | 0.00 | 0.00 | 64 | 1008.8 |
| 20260504035516 | 59 | 180 | 1.7 | 2.6 | 0.00 | 0.00 | 0.00 | 64 | 1008.8 |
| 20260504034536 | 60 | 225 | 2.6 | 6.1 | 0.00 | 0.00 | 0.00 | 63 | 1008.8 |
| 20260504033516 | 59 | 203 | 2.6 | 6.1 | 0.00 | 0.00 | 0.00 | 63 | 1009.0 |
| 20260504032536 | 60 | 180 | 1.7 | 3.5 | 0.00 | 0.00 | 0.00 | 62 | 1009.1 |
| 20260504031516 | 60 | 180 | 1.7 | 3.5 | 0.00 | 0.00 | 0.00 | 61 | 1009.0 |
| 20260504030516 | 61 | 203 | 2.6 | 5.2 | 0.00 | 0.00 | 0.00 | 59 | 1009.0 |
| 20260504025515 | 61 | 158 | 0.9 | 2.6 | 0.00 | 0.00 | 0.00 | 58 | 1009.1 |
| 20260504024515 | 61 | 225 | 4.3 | 5.2 | 0.00 | 0.00 | 0.00 | 58 | 1009.0 |
| 20260504023516 | 62 | 203 | 1.7 | 2.6 | 0.00 | 0.00 | 0.00 | 57 | 1009.0 |
| 20260504022515 | 62 | 225 | 0.9 | 2.6 | 0.00 | 0.00 | 0.00 | 56 | 1009.0 |
| 20260504021516 | 62 | 135 | 2.6 | 4.3 | 0.00 | 0.00 | 0.00 | 56 | 1008.9 |
| 20260504020515 | 63 | 225 | 3.5 | 4.3 | 0.00 | 0.00 | 0.00 | 54 | 1008.9 |
| 20260504015516 | 63 | 203 | 1.7 | 5.2 | 0.00 | 0.00 | 0.00 | 52 | 1008.9 |
| 20260504014616 | 64 | 203 | 2.6 | 4.3 | 0.00 | 0.00 | 0.00 | 52 | 1008.8 |
| 20260504013515 | 64 | 225 | 3.5 | 6.1 | 0.00 | 0.00 | 0.00 | 51 | 1008.8 |
| 20260504012535 | 65 | 225 | 3.5 | 4.3 | 0.00 | 0.00 | 0.00 | 49 | 1008.8 |
| 20260504011515 | 65 | 203 | 2.6 | 3.5 | 0.00 | 0.00 | 0.00 | 48 | 1008.7 |
| 20260504010536 | 66 | 248 | 3.5 | 6.1 | 0.00 | 0.00 | 0.00 | 48 | 1008.8 |
| 20260504005515 | 67 | 248 | 1.7 | 3.5 | 0.00 | 0.00 | 0.00 | 47 | 1008.8 |
| 20260504004515 | 67 | 225 | 3.5 | 6.1 | 0.00 | 0.00 | 0.00 | 46 | 1008.7 |
| 20260504003517 | 68 | 225 | 0.9 | 2.6 | 0.00 | 0.00 | 0.00 | 45 | 1008.7 |
| 20260504002517 | 68 | 248 | 2.6 | 6.1 | 0.00 | 0.00 | 0.00 | 44 | 1008.7 |
| 20260504001517 | 69 | 225 | 4.3 | 7.0 | 0.00 | 0.00 | 0.00 | 42 | 1008.7 |
| 20260504000517 | 69 | 225 | 3.5 | 6.1 | 0.00 | 0.00 | 0.00 | 42 | 1008.7 |
| 20260503235517 | 69 | 248 | 2.6 | 5.2 | 0.00 | 0.00 | 0.00 | 41 | 1008.7 |
| 20260503234517 | 70 | 248 | 6.1 | 10.4 | 0.00 | 0.00 | 0.00 | 40 | 1008.7 |
| 20260503233517 | 70 | 248 | 5.2 | 8.7 | 0.00 | 0.00 | 0.00 | 40 | 1008.8 |
| 20260503232517 | 70 | 270 | 5.2 | 7.8 | 0.00 | 0.00 | 0.00 | 40 | 1008.8 |
| 20260503231517 | 70 | 225 | 4.3 | 7.0 | 0.00 | 0.00 | 0.00 | 41 | 1008.9 |
| 20260503230517 | 70 | 270 | 1.7 | 2.6 | 0.00 | 0.00 | 0.00 | 42 | 1008.8 |
| 20260503225517 | 71 | 248 | 7.0 | 12.2 | 0.00 | 0.00 | 0.00 | 40 | 1008.8 |
| 20260503224517 | 71 | 225 | 5.2 | 9.6 | 0.00 | 0.00 | 0.00 | 41 | 1008.9 |
| 20260503223517 | 71 | 270 | 5.2 | 8.7 | 0.00 | 0.00 | 0.00 | 41 | 1009.1 |
| 20260503222517 | 71 | 248 | 3.5 | 8.7 | 0.00 | 0.00 | 0.00 | 40 | 1009.0 |
| 20260503221517 | 72 | 270 | 7.0 | 11.3 | 0.00 | 0.00 | 0.00 | 40 | 1009.1 |
| 20260503220537 | 72 | 270 | 6.1 | 12.2 | 0.00 | 0.00 | 0.00 | 40 | 1009.2 |
| 20260503215517 | 72 | 248 | 4.3 | 8.7 | 0.00 | 0.00 | 0.00 | 40 | 1009.1 |
| 20260503214517 | 72 | 270 | 8.7 | 13.9 | 0.00 | 0.00 | 0.00 | 39 | 1009.1 |
| 20260503213517 | 71 | 270 | 4.3 | 6.1 | 0.00 | 0.00 | 0.00 | 45 | 1009.2 |
| 20260503212517 | 71 | 293 | 4.3 | 8.7 | 0.00 | 0.00 | 0.00 | 46 | 1009.2 |
| 20260503211517 | 70 | 225 | 5.2 | 7.8 | 0.00 | 0.00 | 0.00 | 47 | 1009.1 |
| 20260503210537 | 69 | 248 | 5.2 | 8.7 | 0.00 | 0.00 | 0.00 | 48 | 1009.7 |
| 20260503205517 | 69 | 270 | 4.3 | 9.6 | 0.00 | 0.00 | 0.00 | 49 | 1009.8 |